Temp
78 80 82 82 71 70 66 69 77 77 78 85 86 83 84 87 82 79 89 89 88 86 85 82 78 78 79 78 78 78 78 77 78 78 78 78 78 78 78 78 78 79 79 78 78 78 78 78 77
80 79 82 78 68 63 69 74 74 80 84 88 86 84 83 84 91 92 93 87 88 86 84 85 78 78 78 78 78 78 77 77 77 78 77 77 77 78 78 78 78 79 79 79 78 78 78 78 77
81 82 78 73 68 64 68 75 79 82 86 85 86 89 87 87 91 94 92 87 86 85 85 83 78 78 78 78 78 77 77 77 77 78 77 77 77 77 77 77 78 78 79 78 78 78 78 77 77
80 81 77 66 64 69 73 77 78 80 85 86 88 84 89 93 92 96 89 88 86 86 86 82 78 78 78 78 78 77 77 77 78 78 77 77 77 77 77 77 77 78 78 78 78 78 77 77 77
81 76 67 63 66 71 75 79 81 80 82 85 87 84 85 91 91 91 89 87 88 86 86 86 78 78 78 78 78 77 77 77 77 78 77 77 77 77 77 77 77 78 78 78 78 77 77 77 77
72 73 62 60 66 73 77 82 81 82 84 85 84 83 87 93 92 91 90 89 90 86 84 85 79 77 77 78 78 77 77 77 77 77 77 77 77 77 77 77 77 77 78 78 78 77 77 77 76
67 64 63 63 64 70 76 84 81 83 84 84 87 81 87 91 94 90 89 88 87 86 82 81 84 80 77 77 77 77 76 77 77 77 77 77 77 76 76 76 77 77 77 77 77 77 76 76 75
73 69 61 62 64 67 78 79 82 82 82 90 89 82 84 89 89 88 89 88 86 85 85 82 81 84 82 81 77 77 76 76 76 77 76 76 77 76 76 75 76 77 76 77 76 76 76 75 75
73 65 61 64 62 69 77 78 81 83 80 84 88 88 89 86 88 89 87 87 88 86 84 83 84 82 82 82 81 77 77 77 76 77 77 77 82 81 80 78 77 76 76 76 76 76 75 75 75
69 63 65 71 72 71 77 75 78 79 79 81 83 89 91 92 89 89 87 89 86 88 87 84 81 80 81 82 81 81 82 82 81 82 81 81 81 81 82 80 76 76 76 76 76 76 75 76 83
69 62 70 71 74 75 75 78 80 78 76 82 82 84 89 90 90 89 92 93 93 93 90 85 79 79 80 82 83 82 84 82 81 80 80 80 80 80 80 81 81 80 77 82 80 80 81 82 82
64 69 71 74 75 73 72 79 77 78 80 86 86 85 86 87 87 90 91 93 95 91 89 88 83 78 78 82 82 82 82 82 81 81 78 79 78 78 79 80 81 79 82 80 80 81 80 80 79
64 69 71 73 73 74 75 73 74 76 82 85 85 84 84 85 86 86 88 90 89 86 89 91 85 80 78 77 82 81 79 82 82 81 79 80 79 77 79 78 80 80 82 80 80 80 79 79 79
71 69 69 72 70 71 69 73 74 77 81 80 81 82 85 85 86 87 87 86 86 87 87 89 84 81 80 77 77 78 78 81 81 81 80 77 79 77 78 78 78 79 79 80 80 79 77 75 77
69 62 66 68 70 68 71 66 69 77 79 78 79 82 84 86 87 86 88 85 87 88 86 84 83 82 79 78 78 78 80 80 80 80 78 77 77 76 75 77 77 78 76 76 76 73 75 77 78
61 62 56 68 67 70 69 61 76 81 78 77 79 81 82 84 85 86 87 84 85 84 83 84 86 83 80 79 79 79 80 79 80 80 78 76 76 76 74 77 76 77 76 75 75 77 76 76 75
59 53 55 60 69 67 66 63 74 80 77 76 79 80 82 83 82 82 84 84 83 83 81 81 82 81 80 79 79 78 78 78 79 78 78 76 76 75 75 76 75 73 73 74 75 74 75 72 72
51 52 57 57 65 65 63 64 73 76 75 75 77 78 79 79 81 82 83 84 83 82 80 79 80 77 77 78 77 78 77 78 78 78 76 76 76 75 75 76 73 72 71 72 74 73 73 74 74
59 56 55 61 66 62 61 64 69 72 73 74 75 76 76 77 82 82 80 82 82 81 79 81 78 77 76 76 76 76 76 74 76 77 76 76 76 75 74 76 73 73 74 75 73 72 72 67 65
54 52 53 59 62 61 63 62 68 68 69 72 73 75 75 76 78 79 79 81 80 79 78 79 78 75 74 77 76 78 77 73 76 78 76 76 75 75 75 75 71 69 74 74 73 70 67 68 67
51 50 51 52 57 61 58 56 60 68 70 72 73 74 74 75 75 78 79 80 81 80 79 79 79 75 74 76 75 74 74 74 75 75 75 75 75 75 75 75 73 72 75 73 71 70 69 66 63
46 56 55 53 51 48 59 47 60 65 66 69 71 73 74 75 76 77 79 80 79 81 82 78 77 75 75 74 75 74 78 76 77 76 77 76 76 76 76 75 75 74 76 73 71 69 67 66 62
49 57 55 55 52 51 52 47 56 64 62 66 70 72 74 77 78 78 80 81 81 81 79 77 75 74 74 74 76 76 76 77 77 77 73 74 75 76 76 75 74 73 75 73 72 69 65 66 69
58 53 53 53 51 40 50 48 52 59 62 66 71 74 74 75 76 77 79 79 78 80 78 75 74 73 73 74 74 75 73 73 75 74 74 75 75 75 75 75 74 74 73 72 72 71 69 68 70
54 49 38 36 37 37 52 48 53 64 64 66 67 70 73 76 76 77 77 79 78 78 76 75 74 72 73 74 74 75 74 74 73 74 76 74 74 74 73 74 73 74 72 72 72 70 70 69 69
50 49 42 32 35 41 50 43 54 65 69 70 70 71 72 75 77 77 77 77 78 76 73 75 74 73 74 75 74 75 75 77 77 75 76 75 75 75 73 73 73 73 73 71 71 71 71 70 69
48 44 53 43 44 43 47 53 61 65 66 69 69 71 71 72 73 74 74 74 76 74 73 74 74 74 74 74 74 73 74 74 74 72 73 74 73 74 73 73 72 72 72 71 71 71 70 70 69
52 56 42 45 34 34 44 46 53 58 61 66 67 67 68 71 73 72 70 71 73 73 73 74 75 74 74 74 75 74 74 74 73 73 72 72 72 73 73 72 72 72 72 71 71 71 70 69 70
49 46 48 49 47 40 41 47 59 61 62 61 64 67 69 71 71 68 66 66 70 73 75 73 74 73 73 74 74 73 74 74 74 73 73 72 72 73 73 72 72 72 72 72 71 71 71 69 70
49 46 46 41 40 45 44 45 62 61 62 63 63 66 70 71 72 68 65 64 68 72 73 73 73 74 75 75 75 74 74 74 73 73 72 73 72 73 73 73 73 73 73 72 72 71 71 71 69
MSLP
1012.53 1012.48 1012.66 1012.16 1011.84 1010.51 1008.80 1007.73 1007.06 1006.21 1005.71 1005.35 1005.32 1004.87 1004.62 1004.57 1004.60 1004.81 1004.76 1005.19 1005.68 1006.45 1007.27 1008.21 1008.71 1009.12 1009.73 1010.30 1010.55 1011.05 1011.47 1011.88 1012.22 1012.41 1012.64 1012.79 1012.91 1013.06 1013.32 1013.60 1013.90 1014.12 1014.27 1014.48 1014.71 1014.87 1014.93 1015.01 1015.04
1012.17 1012.46 1012.19 1011.58 1010.66 1009.19 1007.59 1006.92 1006.20 1005.71 1005.29 1004.91 1004.79 1004.58 1004.59 1004.07 1004.36 1004.33 1004.61 1005.47 1005.87 1006.28 1007.17 1007.65 1008.50 1008.90 1009.38 1010.02 1010.48 1010.75 1011.20 1011.62 1011.84 1012.17 1012.60 1012.78 1012.90 1013.05 1013.33 1013.61 1013.88 1014.15 1014.40 1014.45 1014.67 1014.85 1015.05 1015.17 1015.04
1012.22 1012.04 1011.25 1010.78 1009.67 1008.10 1006.90 1006.18 1005.51 1005.45 1005.24 1004.90 1004.20 1003.91 1004.04 1003.58 1003.88 1003.98 1004.31 1005.28 1005.91 1006.41 1006.83 1007.40 1008.25 1008.75 1009.20 1009.72 1010.21 1010.41 1010.77 1011.26 1011.70 1011.93 1012.18 1012.50 1012.65 1012.91 1013.23 1013.47 1013.71 1013.92 1014.26 1014.46 1014.53 1014.73 1014.90 1015.13 1015.20
1012.02 1011.80 1011.70 1010.42 1008.86 1008.08 1006.80 1005.99 1005.83 1005.36 1004.77 1004.70 1004.05 1003.85 1003.79 1003.49 1003.67 1003.74 1004.40 1005.18 1005.91 1006.47 1006.76 1007.38 1008.04 1008.60 1009.08 1009.42 1010.02 1010.31 1010.58 1010.80 1011.31 1011.65 1011.91 1012.19 1012.47 1012.82 1013.10 1013.29 1013.50 1013.80 1013.98 1014.26 1014.47 1014.71 1014.87 1014.96 1015.02
1011.91 1011.56 1010.57 1009.67 1008.45 1007.57 1006.97 1006.31 1005.99 1005.18 1004.87 1004.31 1004.11 1003.71 1003.59 1003.53 1003.88 1004.27 1004.64 1005.21 1005.34 1006.28 1006.63 1007.02 1007.65 1008.23 1008.76 1009.09 1009.47 1009.98 1010.43 1010.82 1011.08 1011.40 1011.69 1012.00 1012.33 1012.61 1012.93 1013.19 1013.31 1013.53 1013.73 1014.07 1014.23 1014.51 1014.75 1014.91 1014.99
1011.59 1011.38 1010.20 1008.85 1007.85 1007.49 1006.75 1006.25 1005.83 1004.99 1004.61 1004.18 1003.92 1003.75 1003.38 1003.52 1003.81 1004.33 1005.07 1005.40 1005.59 1006.00 1006.58 1007.07 1007.83 1008.30 1008.83 1009.09 1009.14 1009.53 1010.15 1010.59 1011.11 1011.33 1011.57 1011.81 1012.15 1012.42 1012.66 1012.93 1013.22 1013.38 1013.54 1013.81 1013.97 1014.24 1014.42 1014.69 1014.87
1011.19 1010.98 1009.54 1008.75 1007.93 1007.26 1006.30 1006.09 1005.49 1004.89 1004.36 1003.88 1003.60 1003.58 1003.61 1003.55 1003.79 1004.46 1004.89 1005.46 1005.87 1006.11 1006.60 1007.18 1007.52 1008.19 1008.65 1008.95 1009.35 1009.77 1010.20 1010.62 1010.83 1011.27 1011.62 1011.84 1012.04 1012.22 1012.38 1012.72 1013.01 1013.29 1013.41 1013.56 1013.77 1014.00 1014.20 1014.54 1014.74
1010.72 1010.30 1009.21 1008.38 1007.65 1006.99 1006.08 1005.80 1005.41 1004.98 1004.45 1004.18 1003.85 1003.52 1003.58 1003.94 1004.30 1004.79 1005.08 1005.67 1006.09 1006.31 1006.54 1007.09 1007.52 1007.90 1008.31 1008.71 1009.15 1009.46 1009.67 1010.08 1010.52 1010.85 1011.25 1011.59 1012.02 1012.29 1012.37 1012.46 1012.79 1012.99 1013.24 1013.48 1013.66 1013.82 1014.01 1014.31 1014.51
1010.82 1009.73 1008.07 1007.61 1007.56 1006.85 1006.26 1005.58 1005.36 1005.35 1004.92 1004.51 1003.94 1003.90 1004.37 1004.29 1004.52 1004.86 1005.08 1005.49 1005.86 1006.16 1006.47 1006.77 1007.16 1007.68 1007.86 1008.14 1008.52 1009.21 1009.58 1009.77 1010.19 1010.65 1011.00 1011.48 1011.64 1011.98 1012.19 1012.32 1012.50 1012.77 1013.06 1013.29 1013.50 1013.76 1014.00 1014.25 1014.44
1009.84 1008.54 1007.15 1007.23 1007.14 1006.69 1006.18 1006.01 1005.55 1005.25 1004.91 1004.28 1004.07 1003.93 1004.16 1004.19 1004.53 1004.57 1004.73 1004.63 1005.07 1005.22 1005.52 1006.18 1006.63 1006.89 1007.49 1007.88 1008.25 1008.58 1008.88 1009.23 1009.55 1010.01 1010.38 1010.88 1011.13 1011.53 1011.77 1012.07 1012.51 1012.64 1012.92 1013.12 1013.33 1013.52 1013.79 1014.04 1013.62
1008.83 1007.21 1006.81 1006.88 1006.72 1006.57 1005.89 1005.66 1005.84 1005.24 1004.48 1004.07 1003.92 1003.91 1003.83 1004.20 1004.03 1004.39 1004.28 1004.23 1004.27 1004.57 1004.99 1005.59 1006.32 1006.70 1007.09 1007.23 1007.54 1007.80 1007.93 1008.40 1008.68 1009.27 1009.66 1010.16 1010.60 1011.13 1011.49 1011.75 1012.17 1012.41 1012.68 1012.61 1013.00 1013.19 1013.28 1013.14 1013.27
1008.12 1007.20 1006.83 1006.60 1006.54 1006.34 1005.52 1005.54 1005.16 1005.14 1004.03 1004.23 1004.09 1004.38 1004.30 1004.39 1004.42 1004.19 1004.08 1003.92 1003.68 1004.16 1004.27 1004.65 1005.40 1006.04 1006.27 1006.62 1006.90 1007.18 1007.41 1007.25 1007.88 1008.32 1009.05 1009.53 1010.12 1010.52 1010.72 1011.12 1011.37 1011.66 1011.70 1011.97 1012.42 1012.50 1012.79 1012.99 1013.24
1007.49 1006.66 1006.74 1006.65 1006.75 1006.09 1005.79 1005.25 1005.30 1004.40 1003.81 1004.25 1004.31 1004.28 1003.99 1003.97 1004.21 1004.31 1004.03 1003.83 1003.95 1003.89 1003.58 1003.82 1004.67 1004.93 1005.31 1005.90 1006.02 1006.17 1006.13 1006.57 1006.74 1007.47 1008.12 1008.50 1009.10 1009.72 1010.23 1010.49 1010.54 1010.85 1011.18 1011.57 1011.94 1012.15 1012.53 1012.66 1012.79
1006.26 1006.76 1006.49 1006.61 1006.34 1006.18 1005.82 1004.66 1004.88 1003.79 1003.94 1003.70 1003.76 1003.60 1003.35 1003.28 1003.35 1003.62 1003.75 1003.56 1003.57 1003.42 1003.38 1003.39 1003.94 1004.39 1004.75 1004.71 1004.93 1004.93 1005.55 1005.69 1006.32 1006.64 1007.23 1008.05 1008.34 1009.03 1009.46 1009.85 1010.26 1010.56 1010.78 1011.09 1011.52 1011.80 1012.11 1012.36 1012.46
1006.92 1006.69 1006.43 1006.04 1005.84 1005.66 1005.75 1003.92 1002.70 1003.61 1003.54 1003.20 1003.04 1002.81 1002.65 1002.69 1002.88 1002.75 1002.91 1003.05 1003.00 1003.26 1003.20 1003.15 1003.32 1003.61 1003.79 1003.66 1003.82 1004.29 1004.54 1005.13 1005.42 1006.11 1006.78 1007.44 1007.85 1008.31 1009.02 1009.48 1009.88 1010.02 1010.54 1011.01 1011.34 1011.84 1011.97 1011.94 1012.02
1006.96 1006.92 1005.78 1004.75 1005.57 1005.16 1005.65 1001.99 1000.99 1002.17 1002.43 1002.30 1001.75 1001.95 1002.14 1002.17 1002.30 1002.23 1002.38 1002.46 1002.64 1002.92 1003.06 1002.85 1002.87 1002.90 1002.83 1003.03 1003.32 1003.53 1003.92 1004.46 1005.02 1005.60 1006.17 1006.86 1007.47 1007.96 1008.70 1008.88 1009.15 1009.63 1010.12 1010.62 1011.07 1011.20 1011.39 1011.46 1011.63
1006.54 1004.83 1004.47 1004.60 1004.23 1004.59 1004.52 1000.92 1001.51 1001.50 1001.70 1001.50 1001.73 1001.79 1001.51 1001.35 1001.63 1001.81 1001.93 1002.05 1002.12 1002.21 1002.24 1002.12 1002.10 1001.93 1002.18 1002.48 1002.92 1003.08 1003.39 1004.06 1004.62 1005.27 1005.73 1006.16 1006.93 1007.43 1008.05 1008.39 1008.89 1009.54 1010.02 1010.39 1010.66 1010.88 1011.02 1011.17 1011.33
1004.06 1004.63 1003.22 1002.85 1003.44 1004.02 1003.42 1000.84 1001.60 1001.51 1001.37 1000.82 1000.56 1000.70 1000.72 1000.88 1001.08 1001.35 1001.33 1001.40 1001.54 1001.50 1001.50 1001.55 1001.34 1001.73 1001.86 1002.18 1002.72 1002.75 1003.05 1003.64 1004.23 1004.76 1005.35 1005.77 1006.28 1006.84 1007.54 1008.02 1008.71 1009.35 1009.75 1010.04 1010.25 1010.38 1010.68 1010.78 1011.08
1004.79 1004.52 1003.78 1003.43 1003.49 1003.52 1002.68 1001.20 1001.57 1001.78 1001.40 1000.94 1000.56 1000.52 1000.50 1000.44 1000.71 1000.81 1000.80 1000.69 1000.73 1000.67 1000.71 1000.60 1000.85 1001.01 1001.40 1001.98 1002.18 1002.18 1002.34 1003.21 1003.83 1004.35 1004.89 1005.28 1005.79 1006.31 1007.02 1007.50 1008.21 1008.92 1009.08 1009.18 1009.52 1009.90 1010.36 1011.06 1011.58
1005.80 1004.95 1003.95 1003.92 1003.86 1003.64 1002.49 1001.35 1001.46 1001.58 1001.03 1000.52 1000.22 1000.17 1000.21 1000.23 1000.32 1000.16 1000.18 1000.05 999.95 1000.15 1000.04 1000.01 1000.23 1000.47 1000.83 1001.06 1001.29 1001.35 1001.99 1003.07 1003.36 1004.01 1004.51 1005.00 1005.55 1006.09 1006.53 1006.95 1007.57 1008.04 1008.40 1009.03 1009.39 1009.99 1010.52 1010.83 1011.22
1005.55 1005.05 1004.86 1004.29 1004.27 1003.87 1003.35 1001.55 1001.26 1000.87 1000.64 1000.28 999.99 999.97 999.93 1000.03 999.99 999.71 999.57 999.26 999.28 999.50 999.28 999.44 999.68 999.99 1000.20 1000.60 1001.04 1001.47 1002.01 1002.56 1003.17 1003.70 1004.11 1004.79 1005.33 1005.81 1006.25 1006.81 1007.45 1008.01 1008.19 1008.39 1009.01 1009.66 1010.16 1010.46 1011.16
1005.06 1005.29 1005.25 1005.07 1004.67 1003.56 1003.64 1000.76 1000.10 1000.07 999.70 999.57 999.34 999.23 999.14 999.35 999.43 999.10 998.65 998.34 998.48 998.44 998.87 999.04 999.15 999.42 999.71 1000.21 1000.37 1000.68 1000.72 1001.47 1002.19 1002.89 1003.64 1004.44 1005.10 1005.57 1006.11 1006.67 1007.23 1007.81 1008.09 1008.45 1008.85 1009.63 1009.97 1010.35 1010.57
1005.23 1005.31 1004.98 1005.02 1004.73 1004.48 1003.55 1002.78 999.20 999.77 998.90 998.72 998.48 998.42 998.53 998.51 998.21 997.75 997.51 997.52 997.71 997.98 998.31 998.62 998.90 999.15 999.35 999.68 999.99 1000.42 1000.87 1001.44 1002.08 1002.77 1003.65 1004.25 1004.91 1005.47 1006.01 1006.55 1007.12 1007.62 1007.96 1008.43 1008.76 1009.30 1009.80 1010.06 1009.86
1005.40 1005.43 1005.41 1005.25 1004.89 1003.95 1003.24 1003.14 998.62 998.66 998.13 998.08 998.22 998.10 998.28 998.19 997.70 997.40 997.11 997.19 997.20 997.43 997.95 998.30 998.54 998.89 999.26 999.55 1000.00 1000.42 1000.92 1001.35 1002.07 1002.89 1003.55 1004.14 1004.84 1005.47 1005.93 1006.45 1007.02 1007.46 1007.83 1008.09 1008.46 1008.94 1009.27 1009.47 1009.50
1005.06 1004.88 1005.15 1005.09 1004.26 1002.77 1002.93 1002.56 999.07 997.88 997.90 998.11 998.07 998.21 998.28 997.51 996.98 996.71 996.51 996.46 996.45 996.76 997.37 997.87 998.18 998.64 999.18 999.75 1000.25 1000.58 1001.02 1001.35 1002.11 1002.80 1003.33 1004.07 1004.64 1005.17 1005.80 1006.30 1006.83 1007.17 1007.61 1008.00 1008.38 1008.65 1008.85 1009.08 1009.22
1004.54 1004.49 1003.56 1003.03 1002.70 1002.60 1003.03 1000.65 998.22 998.29 997.80 997.94 998.08 998.05 997.90 997.34 996.68 996.44 996.19 995.97 995.99 996.51 997.12 997.53 997.83 998.61 999.31 999.93 1000.49 1000.90 1001.31 1001.78 1002.40 1002.86 1003.42 1003.97 1004.46 1005.06 1005.74 1006.19 1006.64 1007.13 1007.54 1007.92 1008.26 1008.48 1008.70 1008.95 1009.12
1004.43 1004.28 1004.06 1003.50 1003.28 1002.21 1001.37 999.63 998.53 998.25 997.78 997.60 997.94 997.86 997.49 997.14 996.50 996.18 995.87 995.69 995.80 996.29 996.88 997.26 997.85 998.73 999.38 1000.02 1000.57 1001.12 1001.70 1002.19 1002.69 1003.37 1003.86 1004.22 1004.78 1005.28 1005.81 1006.20 1006.67 1007.14 1007.47 1007.80 1008.15 1008.23 1008.45 1008.74 1008.91
1004.42 1004.02 1004.31 1003.84 1002.59 1001.51 1000.25 999.30 997.67 997.57 997.82 997.61 998.01 998.19 997.84 997.27 996.51 996.32 996.19 995.94 996.00 996.40 996.89 997.49 998.11 998.73 999.51 1000.06 1000.75 1001.38 1001.98 1002.44 1003.06 1003.63 1003.99 1004.48 1005.00 1005.39 1005.80 1006.32 1006.80 1007.13 1007.40 1007.73 1007.89 1008.00 1008.18 1008.38 1008.66
1004.90 1004.37 1004.09 1003.64 1002.86 1001.20 999.81 998.24 997.90 997.63 998.15 998.60 998.70 998.67 997.92 997.27 996.93 996.89 997.11 997.06 996.70 996.73 997.10 997.71 998.43 999.12 999.71 1000.21 1001.06 1001.71 1002.18 1002.63 1003.24 1003.71 1004.27 1004.67 1005.11 1005.45 1005.90 1006.41 1006.75 1006.95 1007.20 1007.48 1007.62 1007.71 1007.85 1008.14 1008.38
1005.89 1005.44 1004.99 1003.67 1003.05 1002.28 1001.14 999.22 998.50 998.49 998.69 998.93 998.81 998.26 997.74 997.44 997.13 997.37 997.59 997.61 997.29 997.19 997.57 998.06 998.69 999.28 999.84 1000.45 1001.23 1001.99 1002.53 1002.97 1003.42 1003.87 1004.41 1004.78 1005.06 1005.58 1006.01 1006.40 1006.64 1006.80 1007.01 1007.35 1007.38 1007.40 1007.64 1007.85 1008.21
Wind_Speed
8 5 2 3 5 2 5 6 6 6 4 4 4 5 13 5 12 3 4 13 10 18 19 22 22 22 20 18 19 18 17 16 15 15 15 15 14 14 14 12 12 11 11 11 9 8 7 7 6
7 4 2 1 5 6 7 6 10 7 7 11 5 4 7 7 4 3 6 13 12 18 18 19 21 21 21 19 18 18 18 17 17 16 16 16 16 15 15 14 13 12 11 10 9 7 5 5 5
7 1 4 3 4 11 5 7 11 3 10 10 3 4 3 3 4 3 2 16 14 16 18 16 21 19 20 20 19 19 19 18 17 17 18 17 16 15 15 14 13 12 10 9 8 7 6 3 2
3 3 2 6 12 9 9 1 2 10 2 8 4 3 2 1 2 3 15 15 15 14 16 16 20 18 19 19 19 19 19 20 19 19 18 18 17 16 15 14 13 13 12 10 8 7 6 5 4
1 1 5 7 16 9 11 13 12 12 10 7 6 3 3 1 2 7 15 14 16 15 15 17 20 20 19 20 20 19 20 19 20 20 19 18 18 17 16 15 15 14 12 11 10 8 6 5 5
3 1 5 16 16 12 11 9 10 12 11 10 5 3 3 3 5 7 11 12 10 14 13 14 17 17 17 19 20 20 20 20 19 19 19 19 18 17 17 16 15 15 14 12 11 9 7 6 4
3 3 11 10 9 16 17 11 14 13 9 5 1 3 1 4 5 9 10 10 9 10 11 12 14 16 18 17 16 17 17 18 19 18 17 18 18 18 17 15 15 14 12 11 10 9 7 7 7
5 4 7 8 11 12 3 3 3 5 3 8 2 3 2 1 5 6 6 7 7 8 10 11 12 14 15 15 17 18 19 19 19 19 18 17 17 16 16 15 14 15 13 12 11 10 8 8 8
3 9 13 17 11 7 3 7 2 4 6 5 1 5 6 5 8 6 6 7 7 7 10 11 14 13 15 15 15 17 19 19 18 17 18 15 12 14 16 15 15 15 14 13 12 10 9 9 9
11 11 20 7 14 7 11 3 5 5 7 6 4 7 11 3 3 4 6 9 12 13 14 13 14 16 14 11 13 15 14 14 14 15 15 14 13 12 12 13 15 15 13 12 11 11 10 10 6
10 19 19 15 16 14 18 18 9 10 14 12 5 9 14 11 7 10 11 10 13 11 10 13 11 12 14 13 10 9 9 9 10 16 13 13 11 11 10 7 9 9 12 8 10 9 9 9 6
15 20 21 14 12 10 20 19 14 15 22 9 15 12 13 14 12 13 11 13 11 10 13 10 13 13 14 10 11 10 10 11 11 13 15 11 9 10 10 8 10 9 8 9 8 6 8 9 9
24 22 13 19 12 17 13 19 16 18 21 15 18 18 17 16 11 11 12 12 11 12 12 12 10 13 12 14 11 12 12 12 12 13 15 13 13 11 11 10 10 10 9 8 8 7 7 9 10
14 20 23 15 14 20 20 25 18 14 15 15 15 20 20 17 17 13 11 12 11 10 9 11 10 12 13 14 15 12 10 12 12 12 12 16 12 11 13 11 11 10 9 8 7 7 7 7 9
23 17 9 21 23 16 8 27 31 21 19 23 18 19 20 17 16 14 14 11 8 9 11 12 10 10 14 16 15 12 11 12 12 11 13 15 14 13 13 11 11 10 8 8 7 6 7 7 7
15 20 21 23 13 11 16 32 26 14 16 21 22 19 15 14 13 11 12 9 9 10 12 12 10 12 13 13 11 10 11 10 10 10 9 14 14 14 13 11 10 9 8 7 7 6 8 8 8
18 19 29 27 21 13 19 34 23 17 17 19 17 17 15 13 12 13 12 10 10 12 12 12 9 10 12 11 10 10 10 9 8 8 9 13 13 14 12 10 9 9 7 7 6 7 8 7 7
25 28 27 24 17 20 19 34 18 12 12 14 16 16 15 15 16 12 10 9 11 12 10 10 8 8 9 7 7 7 7 8 8 8 9 12 10 13 12 9 9 9 7 7 8 10 8 6 5
16 20 21 19 13 16 25 31 26 19 21 22 20 20 19 19 16 14 12 11 12 11 9 8 8 4 6 6 7 7 8 7 7 7 11 12 11 12 11 9 9 11 11 11 12 6 6 5 3
22 14 14 8 6 11 19 25 22 13 17 20 21 22 20 19 17 15 13 13 12 11 11 9 8 6 8 7 5 3 6 6 7 7 8 9 11 12 11 10 8 10 8 9 8 7 3 4 4
24 22 10 5 3 9 9 20 21 18 19 20 20 20 19 20 19 17 17 16 13 13 12 9 8 8 9 10 7 6 7 6 6 7 7 8 10 11 11 10 8 8 8 7 8 6 8 5 4
19 17 18 14 7 9 5 14 17 16 18 17 18 19 20 17 18 19 19 19 16 15 9 9 7 7 10 13 10 11 6 8 5 7 7 8 10 10 10 9 9 9 6 7 5 6 6 6 5
13 10 15 17 16 12 18 10 16 15 20 23 22 20 20 21 22 23 22 19 17 13 10 7 6 8 10 12 10 9 8 6 8 7 10 8 8 8 9 9 9 8 6 6 6 7 7 7 5
18 11 5 5 7 13 17 12 16 19 20 19 19 18 16 16 17 19 19 16 15 10 7 6 8 9 10 10 11 11 12 11 10 10 9 7 6 6 8 9 8 8 6 6 5 7 9 7 6
9 19 9 11 11 16 9 13 18 7 4 7 3 6 12 14 11 12 13 12 12 10 7 7 10 10 10 10 10 11 12 13 13 12 9 9 7 5 7 8 8 6 5 6 6 7 7 7 7
13 13 10 15 11 13 11 14 8 13 15 12 8 6 9 12 11 12 13 12 9 8 9 10 12 12 12 11 11 10 11 8 8 9 8 6 6 6 8 6 6 5 6 6 6 5 5 6 7
8 10 6 3 1 7 11 16 16 17 17 16 4 8 13 16 15 15 15 10 8 9 11 13 14 13 13 13 11 10 9 10 9 9 8 7 7 6 7 7 7 7 7 7 7 5 7 6 7
6 8 10 6 7 8 9 16 9 7 6 2 2 12 16 18 17 16 12 5 6 10 12 13 14 15 14 13 11 10 10 10 10 9 9 8 7 7 8 8 8 8 7 7 7 6 5 5 4
5 6 7 7 9 5 3 4 3 7 10 9 9 12 15 18 17 14 10 3 6 11 13 14 14 15 14 13 11 11 10 10 10 8 8 8 8 8 8 8 8 8 7 6 5 5 5 4 5
7 3 5 9 19 11 7 6 5 11 9 10 13 17 19 17 15 11 7 1 6 11 13 14 14 14 14 13 13 11 10 9 9 8 8 8 8 8 8 8 7 7 6 6 5 5 4 4 4
Wind_Direction
191 171 216 212 221 239 231 232 254 254 230 162 161 177 193 172 167 217 50 167 147 154 164 171 171 171 172 173 169 170 169 172 171 170 168 165 162 161 159 157 155 156 151 146 140 139 135 130 121
154 150 187 181 236 215 228 226 232 242 267 305 212 184 186 215 224 274 150 168 169 154 166 175 176 174 172 175 174 172 171 175 173 173 173 172 169 166 165 162 162 162 160 151 148 143 143 147 139
155 176 197 218 217 227 249 214 239 297 291 261 261 197 194 197 189 223 87 160 154 164 169 175 177 178 176 176 178 176 175 177 179 179 176 176 173 169 168 165 165 165 161 161 157 155 160 171 169
187 163 135 230 231 233 236 315 101 316 278 215 224 246 233 252 188 181 147 152 158 167 173 176 178 181 182 179 180 181 181 180 182 185 181 178 177 174 172 168 168 169 170 174 172 177 183 191 201
114 214 217 238 239 243 256 276 285 296 302 283 182 219 212 257 55 126 155 164 162 169 181 183 185 184 187 186 184 185 186 188 186 187 185 182 180 177 174 175 174 176 176 183 187 193 199 211 234
177 258 221 231 230 240 257 270 280 273 281 275 236 207 172 131 163 152 166 172 169 172 180 191 188 187 192 197 189 189 191 191 194 192 189 185 184 180 178 180 181 182 183 190 195 198 202 216 224
207 203 233 242 253 251 252 254 254 264 273 233 235 201 212 207 158 157 169 172 172 174 183 189 194 196 200 205 199 194 194 199 199 198 193 191 189 187 182 183 184 187 191 196 202 208 213 217 225
216 217 228 230 235 251 218 229 311 219 259 325 300 223 66 53 129 127 143 164 172 183 195 196 201 202 205 205 205 202 198 201 202 200 197 195 195 193 188 185 190 192 196 202 209 213 217 227 228
174 229 236 229 212 228 243 229 149 289 270 305 236 63 32 63 129 141 146 181 203 212 209 204 203 207 207 208 209 208 209 206 204 205 202 194 201 198 194 196 188 194 199 205 211 216 220 225 236
206 228 233 221 224 221 248 256 314 302 293 277 270 158 357 45 161 194 213 205 213 222 216 209 207 209 209 214 213 214 213 213 211 211 207 205 204 202 201 199 199 200 201 209 212 216 223 225 235
212 232 232 230 225 221 248 260 232 268 270 255 277 322 325 329 336 326 289 245 241 240 230 215 213 210 212 214 213 213 210 211 210 211 205 204 199 201 201 200 200 207 206 212 208 212 223 226 231
239 230 238 244 235 229 239 254 253 247 252 257 297 298 294 284 278 281 272 275 265 247 246 222 210 207 210 212 216 216 217 204 208 211 202 202 199 199 203 202 203 205 202 207 215 215 227 229 231
232 237 241 238 249 241 259 251 254 247 262 263 276 278 272 275 264 255 259 270 276 259 253 248 215 213 203 207 217 219 214 213 214 211 205 202 204 202 199 206 205 207 202 207 212 220 224 227 230
233 234 243 241 232 245 256 260 250 253 249 256 263 268 269 269 269 265 243 249 254 247 259 261 238 225 209 213 214 214 214 215 217 215 210 207 201 203 207 205 209 209 206 206 218 220 226 232 235
244 249 237 232 230 241 239 271 241 242 252 259 258 266 269 263 258 253 265 255 246 256 262 258 258 231 219 217 216 215 213 212 216 217 208 204 204 205 209 211 211 212 205 206 212 225 237 243 233
226 234 242 227 204 225 200 257 263 230 238 254 265 262 259 261 260 264 258 250 261 261 252 256 250 234 222 228 220 214 214 213 216 210 202 202 205 206 211 215 216 207 204 204 216 226 231 234 232
228 229 225 236 211 201 196 251 251 261 248 250 243 250 260 270 265 257 259 254 255 256 259 268 258 244 232 229 224 213 205 207 204 201 199 195 202 205 214 217 210 197 201 212 218 223 236 227 235
215 225 233 223 212 211 217 249 244 261 266 263 273 280 280 274 271 276 260 257 257 257 254 261 279 256 238 222 209 197 186 196 193 197 197 192 201 203 208 207 194 195 201 218 211 223 212 239 250
263 248 242 248 228 212 223 242 245 239 254 258 261 267 269 272 278 283 279 271 267 265 266 260 294 269 188 185 188 195 194 186 190 191 196 193 196 196 198 202 191 189 198 204 209 212 220 209 192
241 252 249 230 226 229 238 248 249 244 251 254 259 263 269 275 276 278 277 274 270 272 267 274 269 244 204 202 187 166 153 181 181 190 189 187 188 190 192 198 191 183 183 196 190 187 176 224 186
229 233 215 223 238 250 275 260 251 245 249 254 254 260 264 262 272 273 273 269 272 264 266 277 270 231 204 193 159 125 123 115 164 180 171 181 186 183 189 188 181 185 190 195 187 191 208 208 189
234 223 228 239 260 232 201 269 244 242 252 249 256 256 259 264 258 259 261 264 257 266 276 276 266 215 194 183 180 173 172 157 173 169 161 164 175 176 178 183 178 183 185 186 190 201 206 197 196
248 204 206 213 229 251 240 268 260 251 257 256 257 265 271 265 262 259 262 262 266 266 271 261 222 194 178 179 181 172 166 137 140 144 146 150 155 163 171 168 169 176 180 190 195 180 185 196 192
212 228 252 234 225 233 233 238 268 253 257 259 260 264 270 278 269 262 263 265 258 256 245 207 181 166 164 165 166 167 152 138 135 142 142 142 143 151 164 163 168 172 179 180 179 191 198 194 205
181 186 194 217 214 237 201 217 243 246 288 236 258 310 293 296 275 272 273 262 254 227 209 178 163 150 153 156 157 151 140 141 145 152 151 152 147 154 161 164 165 165 162 165 181 186 190 194 201
199 203 207 218 207 226 202 227 241 237 267 277 285 300 300 316 313 298 293 278 254 211 179 168 152 144 151 150 142 135 135 141 147 146 147 144 151 154 155 157 156 155 166 172 177 186 200 196 208
164 204 227 277 68 219 193 249 280 262 274 270 259 10 352 339 334 327 316 285 237 181 168 159 148 145 146 141 134 134 135 142 138 136 138 140 140 144 160 159 158 166 172 175 177 191 194 200 204
233 183 193 205 201 211 210 244 236 117 80 332 124 11 353 348 347 344 339 311 180 159 152 151 148 144 140 134 134 134 139 136 133 137 135 143 143 150 149 148 163 168 165 171 176 177 166 186 195
192 215 224 249 237 248 242 201 231 237 99 57 31 4 354 352 352 352 345 347 161 148 147 145 141 139 136 133 131 133 131 129 130 131 140 141 145 147 150 158 166 157 160 172 167 161 168 189 210
286 292 283 234 217 237 285 279 108 112 80 23 356 351 354 353 355 351 341 353 153 149 146 144 140 138 133 130 130 130 133 134 133 136 141 147 143 146 151 160 160 156 158 169 179 170 168 189 200